| time (UTC) | temp F | wind direction | speed MPH | gust MPH | rain 1hr in | rain 24hr in | rain mn in | humidity % | barometer mb |
| 20260906154303 | 70 | 276 | 1.0 | 2.0 | 0.01 | 0.04 | 0.04 | 87 | 1012.8 |
| 20260906153302 | 70 | 350 | 0.0 | 2.0 | 0.00 | 0.03 | 0.03 | 86 | 1012.4 |
| 20260906152306 | 70 | 264 | 1.0 | 3.0 | 0.00 | 0.03 | 0.03 | 86 | 1012.7 |
| 20260906151302 | 69 | 270 | 0.0 | 2.0 | 0.00 | 0.03 | 0.03 | 84 | 1012.7 |
| 20260906150303 | 69 | 332 | 0.0 | 1.0 | 0.00 | 0.03 | 0.03 | 84 | 1012.2 |
| 20260906145306 | 69 | 319 | 1.0 | 4.0 | 0.00 | 0.03 | 0.03 | 84 | 1012.0 |
| 20260906144303 | 69 | 328 | 1.0 | 6.0 | 0.00 | 0.03 | 0.03 | 82 | 1012.0 |
| 20260906143323 | 69 | 300 | 1.0 | 3.0 | 0.00 | 0.03 | 0.03 | 82 | 1012.5 |
| 20260906142306 | 69 | 343 | 1.0 | 3.0 | 0.00 | 0.03 | 0.03 | 81 | 1012.5 |
| 20260906141303 | 69 | 342 | 1.0 | 5.0 | 0.00 | 0.03 | 0.03 | 81 | 1012.3 |
| 20260906140323 | 69 | 349 | 1.0 | 5.0 | 0.00 | 0.03 | 0.03 | 84 | 1012.0 |
| 20260906135305 | 69 | 58 | 1.0 | 4.0 | 0.00 | 0.03 | 0.03 | 85 | 1012.0 |
| 20260906134302 | 69 | 340 | 1.0 | 4.0 | 0.00 | 0.03 | 0.03 | 85 | 1012.0 |
| 20260906133324 | 70 | 38 | 1.0 | 2.0 | 0.00 | 0.03 | 0.03 | 90 | 1012.0 |
| 20260906132306 | 70 | 38 | 0.0 | 2.0 | 0.00 | 0.03 | 0.03 | 90 | 1012.2 |
| 20260906131303 | 70 | 335 | 0.0 | 4.0 | 0.00 | 0.03 | 0.03 | 87 | 1012.2 |
| 20260906130303 | 70 | 341 | 1.0 | 4.0 | 0.00 | 0.03 | 0.03 | 90 | 1011.9 |
| 20260906125305 | 71 | 28 | 0.0 | 2.0 | 0.03 | 0.03 | 0.03 | 93 | 1011.6 |
| 20260906124303 | 72 | 26 | 0.0 | 2.0 | 0.02 | 0.02 | 0.02 | 92 | 1011.6 |
| 20260906123303 | 72 | 51 | 0.0 | 0.0 | 0.02 | 0.02 | 0.02 | 92 | 1011.6 |
| 20260906121303 | 72 | 287 | 0.0 | 3.0 | 0.01 | 0.01 | 0.01 | 90 | 1011.1 |
| 20260906120302 | 72 | 260 | 1.0 | 2.0 | 0.00 | 0.00 | 0.00 | 88 | 1011.0 |
| 20260906115324 | 71 | 51 | 0.0 | 1.0 | 0.00 | 0.00 | 0.00 | 88 | 1010.7 |
| 20260906114304 | 71 | 42 | 0.0 | 1.0 | 0.00 | 0.00 | 0.00 | 88 | 1010.6 |
| 20260906113303 | 71 | 51 | 0.0 | 0.0 | 0.00 | 0.00 | 0.00 | 87 | 1010.5 |
| 20260906112306 | 71 | 93 | 0.0 | 1.0 | 0.00 | 0.00 | 0.00 | 87 | 1010.6 |
| 20260906111324 | 71 | 9 | 0.0 | 0.0 | 0.00 | 0.00 | 0.00 | 88 | 1010.6 |
| 20260906110302 | 71 | 51 | 0.0 | 1.0 | 0.00 | 0.00 | 0.00 | 88 | 1010.7 |
| 20260906105305 | 71 | 359 | 0.0 | 1.0 | 0.00 | 0.00 | 0.00 | 87 | 1010.7 |
| 20260906104303 | 71 | 68 | 0.0 | 1.0 | 0.00 | 0.00 | 0.00 | 87 | 1010.8 |
| 20260906103303 | 71 | 51 | 0.0 | 0.0 | 0.00 | 0.00 | 0.00 | 87 | 1010.8 |
| 20260906102306 | 70 | 51 | 0.0 | 1.0 | 0.00 | 0.00 | 0.00 | 87 | 1010.8 |
| 20260906101303 | 70 | 314 | 0.0 | 1.0 | 0.00 | 0.00 | 0.00 | 87 | 1010.8 |
| 20260906100303 | 70 | 51 | 0.0 | 0.0 | 0.00 | 0.00 | 0.00 | 87 | 1010.8 |
| 20260906095306 | 70 | 309 | 0.0 | 1.0 | 0.00 | 0.00 | 0.00 | 87 | 1010.7 |
| 20260906094302 | 69 | 51 | 0.0 | 1.0 | 0.00 | 0.00 | 0.00 | 88 | 1010.7 |
| 20260906093303 | 69 | 220 | 0.0 | 1.0 | 0.00 | 0.00 | 0.00 | 87 | 1010.9 |
| 20260906092305 | 69 | 232 | 0.0 | 1.0 | 0.00 | 0.00 | 0.00 | 87 | 1010.9 |
| 20260906091303 | 69 | 226 | 0.0 | 1.0 | 0.00 | 0.00 | 0.00 | 87 | 1010.8 |
| 20260906090302 | 69 | 264 | 0.0 | 1.0 | 0.00 | 0.00 | 0.00 | 87 | 1010.9 |
| 20260906085306 | 69 | 38 | 0.0 | 1.0 | 0.00 | 0.00 | 0.00 | 87 | 1011.0 |
| 20260906084304 | 69 | 51 | 0.0 | 1.0 | 0.00 | 0.00 | 0.00 | 86 | 1011.1 |
| 20260906083303 | 69 | 51 | 0.0 | 0.0 | 0.00 | 0.00 | 0.00 | 85 | 1011.0 |
| 20260906082305 | 69 | 55 | 0.0 | 1.0 | 0.00 | 0.00 | 0.00 | 85 | 1011.0 |
| 20260906081303 | 69 | 93 | 0.0 | 0.0 | 0.00 | 0.00 | 0.00 | 84 | 1011.2 |
| 20260906080302 | 70 | 9 | 0.0 | 1.0 | 0.00 | 0.00 | 0.00 | 84 | 1011.2 |
| 20260906075306 | 70 | 51 | 0.0 | 1.0 | 0.00 | 0.00 | 0.00 | 83 | 1011.1 |
| 20260906074303 | 70 | 221 | 0.0 | 1.0 | 0.00 | 0.00 | 0.00 | 83 | 1011.1 |
| 20260906073302 | 70 | 37 | 0.0 | 1.0 | 0.00 | 0.00 | 0.00 | 82 | 1011.1 |
| 20260906072305 | 70 | 51 | 0.0 | 0.0 | 0.00 | 0.00 | 0.00 | 81 | 1011.1 |
| 20260906071303 | 71 | 265 | 0.0 | 1.0 | 0.00 | 0.00 | 0.00 | 81 | 1011.3 |
| 20260906070303 | 71 | 51 | 0.0 | 1.0 | 0.00 | 0.00 | 0.00 | 80 | 1011.2 |
| 20260906065345 | 71 | 178 | 0.0 | 1.0 | 0.00 | 0.00 | 0.00 | 79 | 1011.2 |
| 20260906064303 | 71 | 98 | 0.0 | 1.0 | 0.00 | 0.00 | 0.00 | 79 | 1010.9 |
| 20260906063303 | 72 | 318 | 0.0 | 1.0 | 0.00 | 0.00 | 0.00 | 78 | 1011.0 |
| 20260906062306 | 72 | 313 | 0.0 | 1.0 | 0.00 | 0.00 | 0.00 | 76 | 1011.0 |
| 20260906061303 | 73 | 305 | 0.0 | 1.0 | 0.00 | 0.00 | 0.00 | 73 | 1011.1 |
| 20260906060303 | 73 | 126 | 0.0 | 1.0 | 0.00 | 0.00 | 0.00 | 72 | 1011.3 |
| 20260906055306 | 74 | 34 | 0.0 | 1.0 | 0.00 | 0.00 | 0.00 | 71 | 1011.2 |
| 20260906054303 | 74 | 51 | 0.0 | 3.0 | 0.00 | 0.00 | 0.00 | 70 | 1011.4 |
| 20260906053303 | 74 | 304 | 0.0 | 4.0 | 0.00 | 0.00 | 0.00 | 70 | 1011.4 |
| 20260906052324 | 74 | 304 | 1.0 | 5.0 | 0.00 | 0.00 | 0.00 | 70 | 1011.5 |
| 20260906051303 | 75 | 300 | 1.0 | 5.0 | 0.00 | 0.00 | 0.00 | 70 | 1011.5 |
| 20260906050324 | 75 | 304 | 2.0 | 5.0 | 0.00 | 0.00 | 0.00 | 70 | 1011.5 |
| 20260906045305 | 75 | 302 | 2.0 | 5.0 | 0.00 | 0.00 | 0.00 | 70 | 1011.5 |
| 20260906044323 | 75 | 306 | 1.0 | 4.0 | 0.00 | 0.00 | 0.00 | 70 | 1011.5 |
| 20260906043303 | 75 | 311 | 1.0 | 4.0 | 0.00 | 0.00 | 0.00 | 68 | 1011.5 |
| 20260906042306 | 75 | 320 | 1.0 | 3.0 | 0.00 | 0.00 | 0.00 | 70 | 1011.5 |
| 20260906041303 | 75 | 308 | 1.0 | 3.0 | 0.00 | 0.00 | 0.00 | 71 | 1011.4 |
| 20260906040303 | 75 | 312 | 1.0 | 3.0 | 0.00 | 0.00 | 0.00 | 71 | 1011.3 |
| 20260906035306 | 75 | 307 | 1.0 | 3.0 | 0.00 | 0.00 | 0.00 | 73 | 1011.3 |
| 20260906034303 | 76 | 314 | 0.0 | 2.0 | 0.00 | 0.00 | 0.00 | 74 | 1011.2 |
| 20260906033303 | 76 | 308 | 1.0 | 4.0 | 0.00 | 0.00 | 0.00 | 74 | 1011.0 |
| 20260906032311 | 76 | 330 | 0.0 | 2.0 | 0.00 | 0.00 | 0.00 | 73 | 1010.9 |
| 20260906031321 | 76 | 315 | 1.0 | 3.0 | 0.00 | 0.00 | 0.00 | 73 | 1010.9 |
| 20260906030303 | 77 | 307 | 2.0 | 5.0 | 0.00 | 0.00 | 0.00 | 73 | 1010.7 |
| 20260906025306 | 77 | 313 | 1.0 | 4.0 | 0.00 | 0.00 | 0.00 | 73 | 1010.6 |
| 20260906024303 | 78 | 328 | 1.0 | 5.0 | 0.00 | 0.00 | 0.00 | 71 | 1010.6 |
| 20260906023303 | 78 | 298 | 2.0 | 5.0 | 0.00 | 0.00 | 0.00 | 70 | 1010.7 |
| 20260906022306 | 79 | 303 | 3.0 | 7.0 | 0.00 | 0.00 | 0.00 | 68 | 1010.7 |
| 20260906021302 | 79 | 305 | 4.0 | 6.0 | 0.00 | 0.00 | 0.00 | 65 | 1010.7 |
| 20260906020303 | 80 | 298 | 2.0 | 8.0 | 0.00 | 0.00 | 0.00 | 63 | 1010.7 |
| 20260906015324 | 81 | 303 | 2.0 | 5.0 | 0.00 | 0.00 | 0.00 | 60 | 1010.6 |
| 20260906014302 | 83 | 303 | 2.0 | 6.0 | 0.00 | 0.00 | 0.00 | 59 | 1010.6 |
| 20260906013303 | 85 | 303 | 3.0 | 9.0 | 0.00 | 0.00 | 0.00 | 54 | 1010.5 |
| 20260906012306 | 86 | 302 | 2.0 | 4.0 | 0.00 | 0.00 | 0.00 | 51 | 1010.5 |
| 20260906011303 | 86 | 223 | 1.0 | 3.0 | 0.00 | 0.00 | 0.00 | 48 | 1010.3 |
| 20260906010303 | 86 | 237 | 1.0 | 5.0 | 0.00 | 0.00 | 0.00 | 50 | 1010.2 |
| 20260906005306 | 85 | 211 | 1.0 | 3.0 | 0.00 | 0.00 | 0.00 | 52 | 1010.4 |
| 20260906004303 | 85 | 207 | 1.0 | 6.0 | 0.00 | 0.00 | 0.00 | 53 | 1010.4 |
| 20260906003303 | 86 | 203 | 1.0 | 4.0 | 0.00 | 0.00 | 0.00 | 51 | 1010.4 |
| 20260906002305 | 85 | 208 | 1.0 | 5.0 | 0.00 | 0.00 | 0.00 | 49 | 1010.3 |
| 20260906001303 | 85 | 186 | 1.0 | 6.0 | 0.00 | 0.00 | 0.00 | 47 | 1010.4 |
| 20260906000348 | 86 | 205 | 1.0 | 5.0 | 0.00 | 0.00 | 0.00 | 47 | 1010.5 |
| 20260905235306 | 87 | 221 | 1.0 | 5.0 | 0.00 | 0.00 | 0.00 | 46 | 1010.5 |
| 20260905234303 | 88 | 195 | 1.0 | 6.0 | 0.00 | 0.00 | 0.00 | 42 | 1010.4 |
| 20260905233303 | 89 | 182 | 1.0 | 7.0 | 0.00 | 0.00 | 0.00 | 40 | 1010.4 |
| 20260905232305 | 91 | 217 | 3.0 | 7.0 | 0.00 | 0.00 | 0.00 | 35 | 1010.5 |
| 20260905231303 | 92 | 240 | 3.0 | 7.0 | 0.00 | 0.00 | 0.00 | 31 | 1010.4 |
| 20260905230303 | 92 | 212 | 2.0 | 6.0 | 0.00 | 0.00 | 0.00 | 32 | 1010.4 |
| 20260905225305 | 92 | 203 | 1.0 | 6.0 | 0.00 | 0.00 | 0.00 | 33 | 1010.5 |
| 20260905224303 | 92 | 241 | 2.0 | 5.0 | 0.00 | 0.00 | 0.00 | 33 | 1010.7 |
| 20260905223303 | 91 | 207 | 2.0 | 6.0 | 0.00 | 0.00 | 0.00 | 34 | 1010.8 |
| 20260905222306 | 91 | 197 | 2.0 | 7.0 | 0.00 | 0.00 | 0.00 | 32 | 1010.9 |
| 20260905221303 | 91 | 228 | 3.0 | 6.0 | 0.00 | 0.00 | 0.00 | 29 | 1010.9 |
| 20260905220303 | 91 | 183 | 1.0 | 7.0 | 0.00 | 0.00 | 0.00 | 31 | 1011.2 |
| 20260905215305 | 91 | 244 | 3.0 | 7.0 | 0.00 | 0.00 | 0.00 | 30 | 1011.2 |
| 20260905214324 | 90 | 194 | 1.0 | 6.0 | 0.00 | 0.00 | 0.00 | 32 | 1011.4 |
| 20260905213302 | 90 | 211 | 2.0 | 6.0 | 0.00 | 0.00 | 0.00 | 33 | 1011.4 |
| 20260905212324 | 90 | 232 | 2.0 | 5.0 | 0.00 | 0.00 | 0.00 | 35 | 1011.4 |
| 20260905211303 | 89 | 235 | 2.0 | 6.0 | 0.00 | 0.00 | 0.00 | 35 | 1011.6 |
| 20260905205306 | 88 | 199 | 2.0 | 7.0 | 0.00 | 0.00 | 0.00 | 38 | 1011.6 |
| 20260905204303 | 88 | 226 | 3.0 | 7.0 | 0.00 | 0.00 | 0.00 | 39 | 1011.8 |
| 20260905203303 | 88 | 215 | 5.0 | 5.0 | 0.00 | 0.00 | 0.00 | 37 | 1011.9 |
| 20260905202324 | 88 | 221 | 3.0 | 7.0 | 0.00 | 0.00 | 0.00 | 39 | 1011.8 |
| 20260905201303 | 88 | 205 | 2.0 | 7.0 | 0.00 | 0.00 | 0.00 | 44 | 1012.0 |
| 20260905200303 | 87 | 242 | 2.0 | 5.0 | 0.00 | 0.00 | 0.00 | 45 | 1012.1 |
| 20260905195306 | 87 | 223 | 2.0 | 9.0 | 0.00 | 0.00 | 0.00 | 49 | 1012.2 |
| 20260905194303 | 87 | 224 | 3.0 | 7.0 | 0.00 | 0.00 | 0.00 | 51 | 1012.4 |
| 20260905193324 | 87 | 221 | 3.0 | 6.0 | 0.00 | 0.00 | 0.00 | 49 | 1012.6 |
| 20260905192306 | 87 | 229 | 2.0 | 6.0 | 0.00 | 0.00 | 0.00 | 49 | 1012.6 |
| 20260905191303 | 87 | 224 | 2.0 | 6.0 | 0.00 | 0.00 | 0.00 | 54 | 1012.7 |
| 20260905190303 | 87 | 213 | 2.0 | 6.0 | 0.00 | 0.00 | 0.00 | 56 | 1012.8 |
| 20260905185305 | 87 | 217 | 2.0 | 5.0 | 0.00 | 0.00 | 0.00 | 56 | 1013.0 |
| 20260905184303 | 86 | 212 | 2.0 | 6.0 | 0.00 | 0.00 | 0.00 | 56 | 1012.9 |
| 20260905183324 | 86 | 170 | 1.0 | 4.0 | 0.00 | 0.00 | 0.00 | 55 | 1013.0 |
| 20260905182305 | 85 | 223 | 2.0 | 6.0 | 0.00 | 0.00 | 0.00 | 59 | 1013.0 |
| 20260905181324 | 85 | 301 | 0.0 | 3.0 | 0.00 | 0.00 | 0.00 | 48 | 1013.0 |
| 20260905180303 | 84 | 253 | 1.0 | 3.0 | 0.00 | 0.00 | 0.00 | 50 | 1013.0 |
| 20260905175306 | 83 | 181 | 1.0 | 3.0 | 0.00 | 0.00 | 0.00 | 56 | 1013.0 |
| 20260905174303 | 82 | 176 | 0.0 | 3.0 | 0.00 | 0.00 | 0.00 | 60 | 1013.3 |
| 20260905173303 | 82 | 63 | 1.0 | 4.0 | 0.00 | 0.00 | 0.00 | 61 | 1013.0 |
| 20260905172324 | 81 | 151 | 1.0 | 2.0 | 0.00 | 0.00 | 0.00 | 66 | 1013.1 |
| 20260905171324 | 80 | 102 | 1.0 | 3.0 | 0.00 | 0.00 | 0.00 | 70 | 1013.1 |
| 20260905170302 | 78 | 201 | 1.0 | 2.0 | 0.00 | 0.00 | 0.00 | 72 | 1013.2 |
| 20260905165306 | 77 | 307 | 1.0 | 3.0 | 0.00 | 0.00 | 0.00 | 74 | 1013.2 |
| 20260905164303 | 77 | 353 | 1.0 | 2.0 | 0.00 | 0.00 | 0.00 | 73 | 1013.2 |
| 20260905163303 | 76 | 181 | 1.0 | 2.0 | 0.00 | 0.00 | 0.00 | 78 | 1013.2 |
| 20260905162305 | 75 | 94 | 1.0 | 4.0 | 0.00 | 0.00 | 0.00 | 80 | 1013.1 |
| 20260905161302 | 73 | 114 | 1.0 | 2.0 | 0.00 | 0.00 | 0.00 | 84 | 1013.1 |
| 20260905160303 | 71 | 318 | 1.0 | 4.0 | 0.00 | 0.00 | 0.00 | 87 | 1013.1 |
| 20260905155306 | 70 | 349 | 1.0 | 2.0 | 0.00 | 0.00 | 0.00 | 89 | 1013.1 |